Regional Weather Roundup
Issued by NWS

Home | Current Version | Previous Version | Graphics & Text | Print | Product List | Glossary On
Versions: 1 2 3 4 5 6 7 8 9 10 11 12 13 14 15 16 17 18 19 20 21 22 23 24 25 26 27 28 29 30 31 32 33 34 35 36 37 38 39 40 41 42 43 44 45 46 47 48 49 50
000
ASUS43 KLSX 102207
RWRMO

WEATHER SUMMARY FOR MISSOURI
NATIONAL WEATHER SERVICE SPRINGFIELD MO
500 PM CDT THU JUL 10 2014

NOTE: "FAIR" INDICATES FEW OR NO CLOUDS BELOW 12,000 FEET WITH NO
       SIGNIFICANT WEATHER AND/OR OBSTRUCTIONS TO VISIBILITY.
       CURRENT SKY AND/OR WEATHER CONDITIONS ARE NOT AVAILABLE FOR
       CHILLICOTHE AND FARMINGTON.

MOZ001>031-035>038-043-044-053-054-102300-
...NORTHERN AND WESTERN MISSOURI...

CITY           SKY/WX    TMP DP  RH WIND       PRES   REMARKS
KANSAS CTY INT MOSUNNY   83  65  54 SE14      30.03S
KANSAS C DTWN  MOSUNNY   85  65  51 SE15      30.02S
LEE`S SUMMIT   MOSUNNY   82  66  58 SE12      30.05S
ST JOSEPH      MOSUNNY   82  67  60 SE16      30.01F
CHILLICOTHE      N/A     82  60  47 SE6G20    30.07S
KIRKSVILLE     SUNNY     80  59  48 SE12      30.10F

$$
MOZ066>068-077>081-088>096-101>105-102300-
...SOUTHWEST MISSOURI...

CITY           SKY/WX    TMP DP  RH WIND       PRES   REMARKS
SPRINGFIELD    PTSUNNY   80  64  58 SE15      30.06F
JOPLIN         PTSUNNY   80  67  64 SE14G22   30.03S

$$
MOZ032>034-039>042-045>050-055>058-069>072-102300-
...CENTRAL MISSOURI...

CITY           SKY/WX    TMP DP  RH WIND       PRES   REMARKS
COLUMBIA       SUNNY     81  62  52 SE6       30.09F
JEFFERSON CITY MOSUNNY   81  60  48 E7        30.07F
ROLLA          PTSUNNY   78  62  57 E8        30.09S
SEDALIA        SUNNY     82  66  58 SE10      30.07F
WHITEMAN AFB   SUNNY     81  60  48 SE9       30.05F
OSAGE BEACH    PTSUNNY   82  64  54 E6        30.07F

$$
MOZ051-052-059>065-102300-
...EAST CENTRAL MISSOURI...

CITY           SKY/WX    TMP DP  RH WIND       PRES   REMARKS
ST LOUIS INTL  MOSUNNY   84  54  35 NE6       30.10S
SPIRIT OF STL  MOSUNNY   83  57  41 S5        30.08S
ST CHARLES     SUNNY     82  56  40 NE5       30.09S

$$
MOZ072>076-082>087-097>100-106>115-102300-
...SOUTH CENTRAL AND SOUTHEAST MISSOURI...

CITY           SKY/WX    TMP DP  RH WIND       PRES   REMARKS
CAPE GIRARDEAU PTSUNNY   83  63  50 NE7       30.07F
FARMINGTON     PTSUNNY   81  61  50 CALM      30.12S
POPLAR BLUFF   PTSUNNY   84  65  52 N5        30.04F
WEST PLAINS    CLOUDY    77  65  66 CALM      30.10F

$$



USA.gov is the U.S. government's official web portal to all federal, state and local government web resources and services.